User: anonymous
Location: Caltech
(34.1382°N, 118.1253°W)
Time: 23:32:09
(UTC-07:00)
Language:

Iridium 72 - Orbit

View from above orbital plane
View from above orbital plane
View from above satellite
View from above satellite

Ground track
Ground track

The orbit data is extracted from the following two-line orbital elements,

1 25343U 98032B   14213.35457301  .00000376  00000-0  12728-3 0  8929
2 25343 086.3981 303.1107 0002335 110.6244 318.1762 14.34219935848481
Epoch (UTC): 01 August 2014 08:30:35
Eccentricity: 0.0002335
inclination: 86.3981°
perigee height: 776 km
apogee height: 779 km
right ascension of ascending node: 303.1107°
argument of perigee: 110.6244°
revolutions per day: 14.34219935
mean anomaly at epoch: 318.1762°
orbit number at epoch: 84848

The dashed part of the orbit path shows where the satellite is in the earth's shadow,  

DLR